EHI
3 4 4 2 0 0 0 0 0 0 0 0 0 0 1 3 3 3 3 2 1 1 2 2 1 0 0 1 1 1 1 3 4 3 2 2 3 6 9 9 6 4 3
3 4 3 1 0 1 1 1 0 0 0 0 0 0 1 2 3 3 2 1 0 0 1 1 1 1 1 0 1 1 1 2 3 2 1 1 2 4 7 8 6 4 4
3 2 1 0 1 2 2 2 2 1 0 0 0 0 1 2 3 3 1 0 0 0 0 0 1 3 2 1 1 1 1 1 2 1 0 0 1 3 6 6 6 5 5
3 2 1 1 1 2 3 4 5 4 1 0 0 1 1 2 3 2 1 0 0 0 0 0 1 2 3 2 2 2 2 2 2 1 0 0 1 3 5 5 5 5 6
2 2 3 3 3 1 2 5 8 7 3 1 1 2 3 3 3 2 1 0 0 1 0 0 1 1 2 2 3 3 3 3 2 1 0 0 1 3 4 4 3 4 6
2 2 3 4 3 1 2 5 7 7 4 2 2 3 3 3 3 2 1 0 0 0 0 1 2 1 1 1 3 3 3 3 3 1 0 0 1 2 3 3 2 3 5
1 1 2 3 3 2 3 4 5 4 3 2 2 3 3 3 3 2 1 0 0 0 0 0 1 0 0 2 3 3 3 4 4 1 0 1 2 3 4 2 1 2 3
1 1 1 3 4 3 3 4 3 3 2 1 1 2 3 3 3 2 1 1 1 0 0 0 0 0 0 1 3 4 4 4 3 1 0 1 4 5 5 4 2 2 2
1 1 1 2 3 3 3 3 3 2 1 1 1 2 3 5 5 4 3 2 1 0 0 0 0 0 0 2 3 5 6 5 2 0 0 2 6 8 8 5 4 3 4
1 2 1 0 1 1 2 3 4 3 2 2 2 3 4 5 6 5 3 2 1 0 0 0 0 1 3 5 7 8 8 6 3 1 0 4 9 12 10 8 6 5 5
1 1 1 0 0 0 1 3 5 5 5 5 5 5 5 4 4 3 2 2 2 1 1 2 3 5 6 8 10 11 9 7 3 1 1 7 13 14 12 10 7 5 5
0 0 0 0 0 0 1 3 3 4 5 6 6 6 6 4 2 1 1 3 4 4 4 6 7 8 7 7 9 10 8 5 2 1 3 9 14 15 14 11 8 7 6
1 1 1 1 0 0 1 1 2 2 4 5 6 7 7 6 4 3 2 3 4 6 7 8 8 8 6 5 6 6 5 3 3 3 6 11 14 15 14 12 10 9 8
3 3 2 2 1 1 0 0 1 2 3 4 6 8 8 7 6 5 3 3 4 6 7 8 8 7 6 5 4 3 3 3 4 5 7 12 16 16 15 13 11 10 9
3 4 4 4 5 4 2 1 1 1 2 4 6 8 8 8 7 6 5 4 4 5 8 9 7 6 7 8 6 4 3 4 4 5 7 12 18 19 18 16 13 10 9
3 4 5 7 9 7 5 3 2 2 2 3 6 8 9 9 9 9 8 7 6 7 9 9 7 6 7 8 8 6 6 5 5 6 7 10 16 21 21 20 17 14 11
5 5 6 8 9 9 6 3 2 1 2 3 5 8 10 11 13 12 10 10 10 10 10 9 7 6 6 6 7 8 7 7 6 7 8 9 13 18 22 23 21 19 17
9 8 6 6 7 8 6 5 3 2 3 4 5 7 10 13 14 13 12 11 11 11 10 10 9 8 7 7 9 9 9 9 8 9 10 11 14 17 21 25 26 24 22
14 13 9 7 7 7 7 8 8 7 6 5 5 8 11 13 13 12 12 11 10 9 9 9 10 12 13 12 10 9 10 12 12 12 13 13 15 19 22 27 29 26 22
21 19 15 12 11 9 8 10 11 10 9 7 7 9 11 11 11 12 13 12 10 9 9 9 11 15 18 15 9 7 9 12 16 18 16 11 12 17 21 27 30 26 20
28 26 21 16 15 14 12 12 13 12 12 11 10 11 12 12 11 12 14 15 13 12 12 12 12 13 15 12 9 8 10 12 16 19 18 13 11 13 17 22 27 25 20
32 32 27 21 19 18 16 16 16 15 14 12 11 13 14 14 12 11 14 15 15 14 14 15 15 12 9 9 10 10 10 12 14 16 17 15 14 15 16 18 23 23 19
32 32 30 27 24 21 19 17 17 16 13 10 10 13 15 15 14 14 14 15 15 14 14 17 17 12 8 9 11 11 10 10 11 13 15 16 17 18 18 17 20 21 20
28 30 31 30 28 25 21 18 15 14 11 8 8 11 14 16 18 19 19 19 18 17 15 16 15 12 9 9 10 11 11 10 10 11 13 16 18 19 19 18 19 21 22
25 26 29 31 32 30 26 21 18 15 13 11 10 11 13 18 21 22 22 23 22 19 17 15 13 12 10 10 10 11 12 12 11 11 11 13 16 18 20 20 19 21 23
25 24 27 33 36 36 30 23 19 18 17 15 12 12 14 19 22 22 21 24 23 19 16 15 14 12 12 11 10 11 13 13 12 11 10 10 12 16 20 22 21 20 21
Wind_Speed
7 9 8 8 7 6 5 5 5 5 4 3 4 5 5 6 6 6 6 7 7 7 7 7 8 7 6 6 6 6 6 6 6 6 5 6 6 5 5 5 5 5 8
9 10 9 8 7 6 6 6 5 5 4 4 4 5 5 5 6 6 7 7 7 7 7 7 7 7 7 6 6 6 6 6 5 5 4 5 6 5 4 4 4 4 8
10 10 9 8 8 7 6 5 5 5 5 4 5 5 6 6 6 6 7 7 7 7 7 7 7 7 7 6 6 5 5 5 5 5 4 3 6 6 6 6 6 6 8
11 9 8 8 8 7 6 6 6 5 5 5 6 6 6 6 6 6 6 7 6 7 6 6 6 6 6 6 5 5 5 5 4 4 2 3 5 7 7 6 6 7 8
11 10 9 9 8 7 7 6 6 6 5 5 5 5 5 6 6 6 6 6 6 6 6 5 5 5 5 5 4 5 5 4 3 3 1 1 4 8 8 7 7 7 7
10 11 10 9 8 7 7 7 6 6 5 5 5 6 5 5 6 6 6 5 5 5 5 5 5 5 5 4 4 4 5 4 3 2 2 3 4 7 8 7 7 7 7
9 10 10 10 8 7 7 7 6 6 7 6 6 6 6 6 6 6 5 5 5 5 5 4 3 4 5 5 4 4 4 4 3 2 3 4 5 6 7 7 7 7 7
9 10 10 9 8 8 7 7 6 6 6 6 6 6 5 6 6 6 5 5 5 5 4 3 3 3 4 5 5 5 4 4 3 3 3 4 6 6 6 7 6 6 7
9 9 8 8 8 8 7 7 6 5 5 6 6 6 5 6 6 6 5 5 5 4 4 4 4 5 5 5 6 5 5 4 2 1 4 4 7 7 6 7 6 6 6
8 8 7 6 6 6 7 7 6 6 5 5 5 5 5 5 6 6 6 5 5 4 5 5 5 6 6 6 5 5 4 3 2 2 3 5 8 8 7 6 6 5 5
7 7 6 6 5 5 6 8 6 5 5 4 3 3 3 2 3 4 5 6 6 5 6 7 7 6 6 6 6 5 4 2 2 2 3 7 10 9 8 7 6 5 5
6 7 7 7 6 6 5 5 3 3 3 2 3 2 1 1 2 4 6 5 5 5 6 7 7 6 5 3 5 5 2 2 2 2 4 9 9 9 8 7 6 6 5
6 6 7 7 6 5 4 3 2 2 2 3 3 2 2 2 2 3 2 2 2 3 3 4 5 3 3 2 1 2 2 1 1 2 5 10 10 9 8 7 7 6 5
6 7 6 6 6 5 4 3 2 2 2 2 3 3 3 2 3 3 2 2 1 1 2 2 2 3 2 1 1 1 1 1 1 2 5 10 9 9 8 8 7 6 6
6 7 7 6 6 4 3 2 3 3 3 3 2 3 4 3 3 3 2 2 2 2 2 2 2 2 2 2 1 1 1 2 2 2 4 10 9 8 8 7 7 7 6
6 7 6 6 6 4 3 2 2 3 2 2 3 4 4 3 3 3 2 2 2 2 2 1 1 1 2 1 1 1 1 1 3 2 3 6 9 9 8 7 7 6 6
7 6 5 5 6 4 3 1 2 2 2 3 3 4 3 3 3 2 2 2 2 2 2 1 1 1 1 1 2 2 2 1 2 3 3 3 5 7 8 7 7 6 5
7 5 4 4 5 4 3 2 2 2 2 2 2 2 2 3 2 1 2 2 1 1 1 1 1 0 0 0 0 1 2 2 2 2 3 3 3 4 6 8 7 6 5
6 5 4 4 4 3 2 1 1 2 2 1 2 2 2 2 2 1 1 2 1 1 1 1 1 0 0 0 1 1 1 1 1 1 3 3 4 4 4 6 8 7 6
7 5 4 3 3 2 2 1 1 1 1 1 2 2 2 2 2 1 1 1 1 1 1 2 1 1 1 1 1 0 1 1 1 1 1 2 3 3 4 5 4 5 6
7 6 4 3 2 1 1 1 0 1 1 1 2 2 2 2 1 1 2 1 1 1 1 1 1 1 1 0 1 1 1 2 2 2 1 1 1 1 2 4 4 3 3
7 6 5 4 3 2 1 1 1 0 0 1 1 2 2 1 1 1 1 1 1 1 1 1 1 1 1 1 1 1 1 0 1 2 1 2 1 1 2 3 3 3 3
7 6 5 4 3 2 2 1 0 0 0 1 1 1 1 1 1 1 1 1 1 0 1 1 1 1 1 2 1 0 0 1 1 1 1 2 2 1 1 2 3 3 3
7 7 5 4 3 2 2 1 1 1 0 1 0 1 1 1 1 1 1 1 1 1 0 1 0 1 2 2 1 1 1 0 1 1 1 1 2 2 1 1 1 2 2
8 7 6 5 4 3 2 1 1 0 0 0 1 1 0 1 1 1 1 1 1 1 0 1 1 2 2 2 2 1 1 1 1 1 1 1 2 1 1 1 1 1 2
8 7 7 6 4 3 2 2 1 1 0 0 0 0 1 1 1 1 1 1 1 1 1 1 1 2 2 2 2 2 1 1 1 1 1 2 2 1 1 1 1 1 2
Wind_Direction
88 90 80 68 62 58 62 66 61 61 70 89 107 109 109 108 108 108 114 116 115 114 116 128 136 130 127 138 134 131 134 136 130 133 133 139 137 135 133 136 147 138 132
97 95 83 73 70 70 70 69 64 60 63 76 104 110 109 110 111 113 118 120 119 118 120 123 129 129 126 128 131 128 132 134 139 139 135 151 147 137 127 136 139 131 137
96 98 92 80 76 73 74 70 63 68 68 75 97 111 113 110 110 114 119 119 121 123 128 130 131 131 131 135 137 139 143 146 152 160 161 147 140 143 135 130 127 133 135
100 96 89 92 83 77 74 68 67 71 74 83 96 107 113 112 113 115 121 123 123 122 126 131 131 132 134 136 144 154 161 167 175 181 184 157 142 139 139 137 134 133 135
101 98 98 102 94 85 77 69 71 77 80 91 107 112 116 117 116 117 119 123 125 123 127 132 137 141 142 144 150 164 174 184 196 204 185 141 122 137 143 144 143 143 143
98 104 108 107 101 92 82 74 77 81 79 92 112 122 121 124 122 117 118 122 123 124 126 130 141 150 152 151 155 172 186 193 206 187 140 113 110 139 149 150 152 155 158
94 105 113 110 106 100 89 82 81 83 89 97 108 119 119 118 122 125 127 129 128 125 125 128 143 160 160 162 171 186 194 205 207 158 131 117 117 136 146 159 161 165 169
87 95 111 115 113 105 99 93 85 85 92 104 114 118 121 122 125 129 133 137 131 131 136 140 151 166 179 182 193 205 213 222 207 159 132 120 129 145 152 162 165 171 181
82 90 106 116 122 112 108 103 98 96 99 106 114 122 127 134 140 143 140 141 141 145 151 157 170 183 188 191 203 213 224 233 258 155 135 118 136 146 151 161 170 178 185
73 77 89 103 112 119 118 113 116 114 111 111 112 126 137 144 154 157 148 154 160 163 166 172 182 187 189 197 204 217 233 252 221 158 119 135 149 153 152 156 164 178 188
74 75 69 70 73 87 104 117 125 122 115 118 118 138 158 169 158 153 148 159 170 174 179 183 188 189 195 204 213 226 239 222 142 131 125 146 155 158 161 164 168 174 184
67 69 70 71 62 69 78 103 106 97 105 100 83 80 121 103 96 99 123 154 163 167 173 180 185 189 200 205 205 216 237 209 155 148 139 149 157 162 166 171 180 185 194
80 69 65 73 67 62 69 81 84 82 90 91 81 67 75 79 86 96 114 137 156 158 162 164 174 181 185 191 174 185 200 224 130 137 136 152 160 163 168 175 182 188 195
92 81 75 74 71 59 59 59 78 83 89 81 79 49 68 69 61 75 82 85 115 104 125 131 152 164 169 169 187 187 160 125 91 107 142 153 156 162 169 176 179 187 193
96 90 82 77 71 62 57 31 57 62 65 69 70 59 57 69 69 70 71 64 75 96 116 130 138 143 148 169 191 116 96 106 108 121 138 161 165 166 171 176 182 186 193
99 96 94 91 89 74 66 46 49 66 68 65 65 71 65 67 71 75 73 66 63 82 90 96 110 140 135 149 148 128 131 116 127 140 145 165 172 175 177 179 182 185 190
102 95 98 105 97 87 75 55 71 74 72 69 69 75 69 71 70 77 69 71 61 77 92 104 57 100 136 160 162 167 146 152 155 150 155 163 168 179 179 183 184 184 189
101 98 90 92 99 96 81 44 49 47 60 74 80 85 82 84 79 65 68 72 55 63 89 112 105 64 69 149 196 180 147 159 198 175 158 160 156 165 181 187 180 181 188
110 110 100 86 88 91 96 85 80 75 54 70 83 87 97 93 84 71 76 68 71 78 49 65 95 57 331 122 229 195 168 163 189 183 159 165 157 161 168 176 182 185 188
120 117 115 111 106 107 101 99 89 88 84 93 95 84 83 89 77 61 91 78 56 76 45 41 38 329 276 284 293 52 173 160 186 175 175 149 151 164 156 157 176 189 187
127 124 121 127 132 131 101 98 97 110 107 110 115 107 93 83 67 64 43 50 63 75 54 43 12 317 279 315 341 337 237 193 192 162 181 139 119 143 147 154 164 163 174
136 136 146 154 147 152 147 160 179 228 188 115 88 103 105 92 74 83 90 65 63 78 40 335 314 310 318 342 298 314 309 276 286 176 161 154 160 175 176 159 159 156 166
145 148 147 145 144 160 167 170 132 150 58 69 81 94 107 113 104 66 56 56 30 114 166 245 286 293 293 292 298 336 340 321 304 207 218 173 175 184 183 171 160 161 168
150 146 138 139 142 153 159 173 205 169 135 119 116 103 119 113 110 120 106 69 338 327 102 280 179 298 289 294 293 274 273 72 266 305 292 232 210 195 187 170 173 167 152
153 151 150 145 149 153 165 175 223 251 131 95 60 85 188 154 145 122 142 156 219 267 205 302 350 315 316 326 322 308 315 302 264 248 291 310 289 237 186 190 193 167 154
157 156 153 146 149 154 170 176 189 223 318 36 337 304 262 173 148 147 171 185 218 248 246 256 270 291 300 309 314 313 316 314 306 301 300 297 295 279 207 186 184 178 167